Location: Anjeux
(47.8815°N, 6.2076°E)
Time: 07:32:36
(UTC+00:00)

COSMO-SKYMED 1 - Pass Details

Date: 05 March 2021
Orbit: 621 x 623 km, 97.9° (Epoch: 18 April)

Event Time Altitude Azimuth Distance (km) Brightness Sun altitude
Rises 04:58:57 0° 175° (S) 2,892 6.0 -12.4°
Reaches altitude 10° 05:01:09 10° 180° (S) 1,991 5.1 -12.0°
Maximum altitude 05:05:25 57° 259° (W) 737 2.6 -11.3°
Drops below altitude 10° 05:09:44 10° 339° (NNW) 2,007 5.0 -10.6°
Sets 05:11:58 0° 344° (NNW) 2,919 5.9 -10.2°
